www.pogodaiklimat.ru

Погода и климат >> Архив погоды >> Россия >> Якутия >> Джалинда


АРХИВ ПОГОДЫ в Джалинде

Время (UTC), дата Ветер
(напр.,м/с)
 
Видим.   Явления Облачность Т
(С)
Тd
(С)
f
(%)
Тe
(С)
Тes
(С)
Комфортность P
(гПа)
Po
(гПа)
Тmin
(С)
Tmax
(С)
R
(мм)
R24
(мм)
S
(см)
12 16.07 штиль 0 50 км 9/8 600 м
[Frnb Ac trans]
+16.9 +13.2 79 +17 +17 1009.2 1001.9 +18.9 0.0
15 16.07 штиль 0 20 км слаб. дождь 10/8 600 м
[Frnb As op]
+13.6 +13.1 97 +13 +13 1006.7 999.4
18 16.07 штиль 0 20 км слаб. дождь 10/9 600 м
[Frnb As op]
+13.6 +13.6 100 +13 +13 1004.4 997.1
21 16.07 СВ 3 20 км слаб. дождь 10/8 600 м
[Frnb As op]
+9.6 +9.6 100 +7 +7 1007.7 1000.2
00 17.07 С 3 10 км слаб. дождь 10/4 600 м
[Frnb As op]
+9.1 +8.5 96 +6 +7 1011.7 1004.2 +9.1 23
03 17.07 СВ 5 50 км {дождь} 8/8 600 м
[Sc]
+12.0 +8.4 79 +10 +10 1014.5 1007.0
06 17.07 СВ 5 50 км {дождь} 8/8 600 м
[Sc]
+11.0 +6.3 73 +8 +9 1017.2 1009.7
09 17.07 С 7 50 км 4/4 600 м
[Cu hum]
+12.7 +3.8 55 +10 +11 1018.5 1011.0
12 17.07 СВ 7 50 км 3/0
[Ci fib]
+12.4 +3.2 53 +10 +10 1020.8 1013.3 +12.9 0.4
15 17.07 С 1 50 км 3/0
[Ci fib]
+9.9 +1.5 56 +10 +10 1021.3 1013.8
18 17.07 СЗ 3 50 км ясно +6.7 +2.9 77 +4 +4 1022.6 1014.9
21 17.07 С 3 50 км 10/10 600 м
[Sc]
+6.4 +3.8 83 +3 +3 1022.3 1014.6
00 18.07 С 3 50 км 9/9 600 м
[St]
+5.4 +2.7 83 +2 +2 1024.1 1016.3 +5.4
03 18.07 С 5 50 км 9/9 600 м
[Sc]
+9.6 +3.7 67 +7 +7 1024.6 1017.0
06 18.07 50 км н/о +13.3 +3.5 51 +12 +15 1024.8 1017.2
09 18.07 СВ 5 50 км 3/3 600 м
[Sc]
+15.6 +5.6 51 +15 +16 1025.8 1018.3
12 18.07 СВ 5 50 км 3/0
[Ci sp]
+15.2 +4.5 49 +14 +15 1025.9 1018.4 +15.8
15 18.07 штиль 0 50 км 4/0
[Ci sp]
+12.2 +5.8 65 +12 +12 1026.0 1018.4
18 18.07 штиль 0 50 км 4/0
[Ci sp]
+7.2 +2.6 73 +7 +7 1025.6 1017.8
21 18.07 штиль 0 50 км 8/8 600 м
[Sc]
+8.7 +5.4 80 +8 +8 1027.2 1019.6
00 19.07 С 1 50 км 4/4 1000 м
[Sc]
+11.7 +7.4 75 +12 +15 1028.2 1020.6 +7.2
03 19.07 СВ 3 50 км 4/4 1000 м
[Sc]
+16.6 +5.1 47 +16 +21 1026.7 1019.2
06 19.07 С 3 50 км 6/6 600 м
[Cu hum]
+19.0 +6.9 45 +20 +23 1026.2 1018.8
09 19.07 С 3 50 км 6/6 600 м
[Sc]
+21.0 0.0 25 +20 +21 1025.7 1018.3
12 19.07 СЗ 3 50 км 6/6 600 м
[Cu hum]
+20.2 +4.6 36 +21 +21 комфорт 1024.6 1017.2 +21.2
15 19.07 штиль 0 50 км 6/0
[Ci sp]
+13.7 +7.2 65 +13 +13 1022.9 1015.4
18 19.07 штиль 0 50 км 3/0
[Ci sp]
+8.1 +5.0 81 +7 +7 1023.8 1016.0
21 19.07 штиль 0 50 км 3/0
[Ci sp]
+8.4 +6.2 86 +8 +9 1025.2 1017.4
00 20.07 штиль 0 50 км 3/0
[Ci sp]
+17.0 +10.7 66 +17 +23 1023.5 1016.0 +8.1
03 20.07 ЮЗ 5 50 км 4/0 1500 м
[Ci sp]
+22.1 +5.6 34 +23 +27 комфорт 1022.6 1015.2
06 20.07 З 5 50 км 4/0
[Ci sp]
+25.4 +5.2 27 +25 +29 комфорт 1020.3 1013.1
09 20.07 З 5 50 км 6/0
[Ci sp]
+24.7 +5.5 29 +24 +26 комфорт 1019.0 1011.8
12 20.07 З 1 50 км 3/0
[Cc]
+25.2 +3.9 25 +24 +25 комфорт 1017.7 1010.5 +25.7
15 20.07 штиль 0 50 км 3/0
[Ac trans]
+20.3 +5.9 39 +21 +21 комфорт 1017.4 1010.1
18 20.07 штиль 0 50 км 3/0
[Ac trans]
+14.0 +6.1 59 +14 +14 1016.7 1009.3
21 20.07 штиль 0 50 км ясно +13.9 +8.8 71 +14 +15 1016.7 1009.3
00 21.07 штиль 0 50 км ясно +22.3 +9.1 43 +24 +30 комфорт 1016.7 1009.4 +13.9
03 21.07 СЗ 3 50 км 6/6 600 м
[Cu hum]
+25.3 +7.4 32 +25 +28 комфорт 1016.2 1009.0
06 21.07 СВ 3 50 км 8/8 600 м
[Cu hum]
+26.0 +9.0 34 +26 +28 жарко 1016.1 1008.9
09 21.07 СВ 3 50 км 6/6 600 м
[Cu hum]
+26.4 +9.6 35 +27 +28 жарко 1016.9 1009.7
12 21.07 В 3 50 км ясно +24.4 +13.5 51 +27 +27 жарко 1017.5 1010.3 +26.6
15 21.07 штиль 0 50 км 4/0
[Ci sp]
+19.3 +11.5 61 +20 +20 1017.9 1010.6
18 21.07 штиль 0 50 км 4/0
[Ci sp]
+15.0 +10.5 74 +15 +15 1018.4 1011.0
21 21.07 штиль 0 50 км 4/0
[Ci sp]
+11.1 +8.3 83 +10 +12 1018.6 1011.1
00 22.07 штиль 0 50 км ясно +19.4 +10.1 55 +20 +26 1018.2 1010.9 +11.1
03 22.07 Ю 1 50 км ясно +25.4 +12.0 43 +27 +37 жарко 1017.5 1010.3
06 22.07 Ю 1 50 км 3/3 600 м
[Cu hum]
+29.0 +13.4 38 +31 +37 жарко 1014.9 1007.9
09 22.07 штиль 0 50 км 6/6 600 м
[Cu hum]
+28.7 +12.8 38 +30 +32 жарко 1012.8 1005.8
12 22.07 штиль 0 50 км ясно +27.8 +13.1 40 +29 +30 жарко 1011.0 1003.9 +29.3
15 22.07 штиль 0 50 км ясно +20.7 +13.0 61 +23 +23 комфорт 1011.4 1004.2
18 22.07 штиль 0 50 км ясно +16.1 +9.8 66 +16 +16 1012.5 1005.1
21 22.07 штиль 0 50 км ясно +16.6 +12.3 76 +17 +18 1010.4 1003.1
00 23.07 штиль 0 50 км ясно +25.2 +15.3 54 +28 +34 жарко 1010.1 1003.0 +16.1
03 23.07 ЮЗ 3 50 км ясно +29.2 +16.6 47 +33 +40 очень
душно
1008.9 1001.9
06 23.07 ЮЗ 3 50 км 4/0
[Ci sp]
+31.2 +18.6 47 +36 +42 очень
душно
1007.7 1000.7
09 23.07 ЮЗ 3 50 км 4/0
[Ci sp]
+31.8 +6.8 21 +30 +33 жарко 1006.8 999.8

 

Местоположение метеостанции Джалинда (Якутия, Россия): широта 70.13 долгота 113.90 высота над уровнем моря 62 м.

В архиве по умолчанию представлена погода в Джалинде за последнюю неделю. Архивные данные за месяц целиком и за предыдущие месяцы, начиная с января 2011 года, Вы можете получить, выбрав интересующий диапазон дат из раскрывающегося списка и нажав кнопку "Ввод!".


*Определитесь, кто Вы:
робот инопланетянин человек

Внимание! Время в таблицах - всемирное. Для получения местного времени необходимо прибавить поправку, которая равна 9 ч.

Смотрите также архив погоды в соседних городах и на ближайших метеорологических станциях:

Погода в Оленеке (Якутия, Россия) (191 км)
Погода в Саскылахе (Якутия, Россия) (205 км)
Погода в Сухане (Якутия, Россия) (241 км)
Погода в Анабаре (Якутия, Россия) (344 км)
Погода на Усть-Оленеке (Якутия, Россия) (380 км)
Погода в Полярном (Якутия, Россия) (383 км)
Погода в Ярольине (Якутия, Россия) (399 км)
Погода в Тюмяти (Якутия, Россия) (400 км)
Погода в Джарджане (Якутия, Россия) (424 км)
Погода в Шелагонцах (Якутия, Россия) (432 км)

Пояснения к столбцам:

Ветер - указаны скорость ветра в м/с - средняя за 10 мин, порывы в срок и между сроками (в фигурных скобках) и направление, откуда дует ветер: С - северный, СВ - северо-восточный, В - восточный, ЮВ - юго-восточный, Ю - южный, ЮЗ - юго-западный, З - западный, СЗ - северо-западный.
Видимость - горизонтальная дальность видимости в метрах или километрах. При видимости от 1 до 10 км при отсутствии осадков обычно наблюдается дымка, при ухудшении видимости до 1 км и менее - туман. В сухую погоду видимость может ухудшаться дымом, пылью или мглою.
Явления - указаны атмосферные явления, наблюдавшиеся в срок или в последний час перед сроком; фигурными скобками обозначены явления, наблюдавшиеся между сроками (за 1-3 часа до срока); квадратными скобками обозначены град или гололедные отложения с указанием их диаметра в мм.
Облачность - указаны через наклонную черту общая и нижняя облачность в баллах и высота нижней границы облаков в метрах; квадратными скобками обозначены формы облаков: Ci - перистые, Cs - перисто-слоистые, Cc - перисто-кучевые, Ac - высококучевые, As - высокослоистые, Sc - слоисто-кучевые, Ns - слоисто-дождевые, Cu - кучевые, Cb - кучево-дождевые. Подробнее классификацию облаков см. в Атласе облаков (PDF).
T - Температура воздуха - температура, измеренная на высоте 2 м над землей.
Td - Температура точки росы - температура, при понижении до которой содержащийся в воздухе водяной пар достигнет насыщения.
f - Относительная влажность воздуха - влажноcть воздуха, измеренная на высоте 2 м над землей.
Te - Эффективная температура - температура, которую ощущает одетый по сезону человек в тени. Характеристика душности погоды. При расчете учитывается влияние влажности воздуха и скорости ветра на теплоощущения человека.
Tes - Эффективная температура на солнце - температура, которую ощущает человек, с поправкой на солнечный нагрев. Характеристика знойности погоды. Зависит от высоты солнца над горизонтом, облачности и скорости ветра. Ночью, в пасмурную погоду, а также при ветре 12 м/с и более поправка равна нулю.
P - Атмосферное давление - приведенное к уровню моря атмосферное давление.
Po - Атмосферное давление - измеренное на уровне метеостанции атмосферное давление.
Tmin - Минимальная температура - минимум температуры воздуха на высоте 2 м над землей.
Tmax - Максимальная температура - максимум температуры воздуха на высоте 2 м над землей.
R - Количество осадков - Количество выпавших осадков за период времени, мм. При наведении курсора мыши на число - период времени, за который выпало указанное количество осадков.
R24 - Количество осадков - Количество выпавших осадков за 24 часа, мм.
S - Снежный покров - Высота снежного покрова, см. При наведении курсора мыши на число - состояние снежного покрова и степень покрытия местности в баллах.